Погода в Мари-Отарах

Россия / Республика Марий Эл     55°57′41″N   48°14′06″E
темп.,
°C
ветер,
м/с
пор.,
м/с
влажн.,
%
обл.,
%
осадки,
мм/ч
давл.,
гПа
погр.,
м
13 мая, чт
чт1300:00+15вюв226688 0.0 102524
03:00+14в22669 0.0 102515
06:00+16вюв276735 0.0 1025203
09:00+22вюв58466 0.0 1024620
12:00+24юв684482 0.0 10231108
15:00+24ююв6749100 0.1 10221306
18:00+21вюв5136064 0.0 1021509
21:00+19юв5166497 0.0 1020439
14 мая, пт
пт1400:00+17ююв4127493 0.1 1021290
03:00+15вюв228720 1.4 102134
06:00+16ююв3881100 0.0 1021254
09:00+21ю456239 0.0 1021565
12:00+24ююз4557100 0.0 1020970
15:00+25ю455785 0.0 10201290
18:00+23ююв366536 0.1 1019222
21:00+18ю3374100 0.1 101934
15 мая, сб
сб1500:00+16ююв2275100 0.0 101931
03:00+16ююв377565 0.0 1019129
06:00+17ююв3107396 0.1 1019272
09:00+22ю5854100 0.2 1018430
12:00+27ю61042100 0.0 1018936
15:00+27ю61044100 0.0 10171353
18:00+23ююв511587 0.0 1016299
21:00+19ю4146229 0.0 1016244
16 мая, вс
вс1600:00+17ю414581 0.0 1015252
03:00+15ю311635 0.0 1015180
06:00+17ю4116536 0.0 1015292
09:00+22юз4755100 0.0 1015554
12:00+25юз5750100 0.0 10151163
15:00+26юз584621 0.0 10141600
18:00+23зюз3666100 0.0 1014197
21:00+18зюз1186100 0.4 101412
17 мая, пн
пн1700:00+17з2593100 3.4 1015120
03:00+16зюз269184 3.9 1016126
06:00+17зюз248014 0.0 1017158
09:00+21з34600 0.0 1017741
12:00+24зюз464946 0.0 10171284
15:00+25з464910 0.0 10171389
18:00+23зсз24665 0.0 1017115
21:00+18з11755 0.0 101811